Location: Härggis
(46.9540°N, 8.4897°E)
Time: 00:27:56
(UTC+00:00)

BREEZE-M DEB (TANK) - Pass Details

Date: 27 May 2022
Orbit: 321 x 13840 km, 49.6° (Epoch: 01 July)

Event Time Altitude Azimuth Distance (km) Brightness Sun altitude
Rises 03:01:13 0° 278° (W) 5,978 7.7 -6.0°
Reaches altitude 10° 03:06:46 10° 282° (WNW) 3,515 6.5 -5.2°
Maximum altitude 03:13:29 65° 4° (N) 642 3.4 -4.3°
Drops below altitude 10° 03:16:11 10° 88° (E) 1,441 5.9 -4.0°
Sets 03:17:36 0° 93° (E) 2,136 6.7 -3.8°
